CW4745 Weather Reports


Display with metric or nautical units.
time (UTC)temp
F
wind
direction
speed
MPH
gust
MPH
rain 1hr
in
rain 24hr
in
rain mn
in
humidity
%
barometer
mb
20170328022303 39 73 0.0 1.0 0.00 0.00 0.00 90 1019.7
20170328021303 39 74 0.0 2.0 0.00 0.00 0.00 90 1019.7
20170328020303 39 73 0.0 2.0 0.00 0.00 0.00 90 1019.7
20170328015302 40 73 0.0 0.0 0.00 0.00 0.00 90 1019.7
20170328014303 40 73 0.0 0.0 0.00 0.00 0.00 90 1019.8
20170328013301 40 73 0.0 1.0 0.00 0.00 0.00 90 1019.8
20170328012300 40 74 0.0 0.0 0.00 0.00 0.00 90 1020.0
20170328011257 41 74 0.0 1.0 0.00 0.00 0.00 90 1020.0
20170328010257 41 73 0.0 0.0 0.00 0.00 0.00 90 1020.1
20170328005258 42 73 0.0 0.0 0.00 0.00 0.00 90 1020.1
20170328004256 42 73 0.0 2.0 0.00 0.00 0.00 90 1020.2
20170328003256 42 74 1.0 3.0 0.00 0.00 0.00 90 1020.3
20170328002256 42 74 2.0 2.0 0.00 0.00 0.00 90 1020.4
20170328001257 42 73 1.0 2.0 0.00 0.00 0.00 90 1020.4
20170328000255 42 73 0.0 2.0 0.00 0.00 0.00 90 1020.5
20170327235256 43 73 0.0 2.0 0.00 0.00 0.00 90 1020.5
20170327234256 43 73 1.0 2.0 0.00 0.00 0.00 90 1020.7
20170327233256 43 73 0.0 2.0 0.00 0.00 0.00 90 1020.7
20170327232256 43 73 2.0 2.0 0.00 0.00 0.00 89 1020.7
20170327231256 44 73 0.0 2.0 0.00 0.00 0.00 89 1020.8
20170327230257 44 73 0.0 2.0 0.00 0.00 0.00 89 1020.9
20170327225257 44 73 1.0 2.0 0.00 0.00 0.00 89 1020.8
20170327224256 44 73 1.0 2.0 0.00 0.00 0.00 89 1021.0
20170327223258 44 73 2.0 2.0 0.00 0.00 0.00 89 1020.9
20170327222254 45 74 2.0 2.0 0.00 0.00 0.00 89 1021.0
20170327221256 45 74 0.0 2.0 0.00 0.00 0.00 89 1021.0
20170327220256 46 74 1.0 3.0 0.00 0.00 0.00 89 1021.1
20170327215256 46 55 1.0 3.0 0.00 0.00 0.00 89 1021.1
20170327214255 46 62 2.0 3.0 0.00 0.00 0.00 88 1021.2
20170327213256 46 33 2.0 3.0 0.00 0.00 0.00 88 1021.2
20170327212256 46 33 2.0 3.0 0.00 0.00 0.00 88 1021.3
20170327211255 46 33 2.0 3.0 0.00 0.00 0.00 87 1021.3
20170327210256 46 19 1.0 3.0 0.00 0.00 0.00 87 1021.3
20170327205255 47 16 2.0 4.0 0.00 0.00 0.00 87 1021.5
20170327204254 47 16 2.0 4.0 0.00 0.00 0.00 86 1021.5
20170327203254 47 32 2.0 3.0 0.00 0.00 0.00 86 1021.4
20170327202252 47 32 0.0 2.0 0.00 0.00 0.00 85 1021.5
20170327201253 48 32 0.0 1.0 0.00 0.00 0.00 85 1021.5
20170327200251 48 32 0.0 2.0 0.00 0.00 0.00 85 1021.4
20170327195251 49 31 2.0 3.0 0.00 0.00 0.00 84 1021.4
20170327194249 49 31 2.0 3.0 0.00 0.00 0.00 84 1021.3
20170327193249 50 31 2.0 3.0 0.00 0.00 0.00 83 1021.2
20170327192250 50 31 2.0 3.0 0.00 0.00 0.00 82 1021.2
20170327191250 51 14 2.0 5.0 0.00 0.00 0.00 80 1021.1
20170327190248 51 26 2.0 5.0 0.00 0.00 0.00 78 1021.0
20170327185248 52 8 4.0 5.0 0.00 0.00 0.00 76 1021.0
20170327184248 53 11 3.0 5.0 0.00 0.00 0.00 73 1020.9
20170327183247 54 0 4.0 5.0 0.00 0.00 0.00 70 1021.0
20170327182248 55 6 3.0 4.0 0.00 0.00 0.00 64 1021.0
20170327181247 56 1 2.0 3.0 0.00 0.00 0.00 60 1020.8
20170327180246 56 87 0.0 2.0 0.00 0.00 0.00 58 1020.7
20170327175246 57 87 0.0 3.0 0.00 0.00 0.00 58 1020.7
20170327174246 58 87 1.0 4.0 0.00 0.00 0.00 57 1020.6
20170327173248 58 60 2.0 4.0 0.00 0.00 0.00 56 1020.6
20170327172248 59 74 2.0 6.0 0.00 0.00 0.00 55 1020.7
20170327171249 59 111 1.0 6.0 0.00 0.00 0.00 55 1020.6
20170327170248 59 70 2.0 7.0 0.00 0.00 0.00 53 1020.6
20170327165248 60 60 4.0 10.0 0.00 0.00 0.00 52 1020.6
20170327164247 60 78 4.0 9.0 0.00 0.00 0.00 51 1020.7
20170327163247 60 62 4.0 10.0 0.00 0.00 0.00 51 1020.7
20170327162247 61 73 4.0 10.0 0.00 0.00 0.00 50 1020.7
20170327161246 61 107 4.0 12.0 0.00 0.00 0.00 49 1020.7
20170327160246 61 88 4.0 10.0 0.00 0.00 0.00 49 1020.8
20170327155247 61 74 6.0 15.0 0.00 0.00 0.00 48 1020.8
20170327154246 61 60 6.0 13.0 0.00 0.00 0.00 49 1020.8
20170327153246 61 117 4.0 13.0 0.00 0.00 0.00 49 1020.9
20170327152245 62 86 8.0 13.0 0.00 0.00 0.00 48 1020.9
20170327151245 62 101 8.0 13.0 0.00 0.00 0.00 45 1021.1
20170327150245 62 94 6.0 13.0 0.00 0.00 0.00 44 1021.1
20170327145245 62 117 5.0 12.0 0.00 0.00 0.00 48 1021.2
20170327144244 62 115 6.0 12.0 0.00 0.00 0.00 48 1021.3
20170327143241 62 135 6.0 11.0 0.00 0.00 0.00 46 1021.6
20170327142240 62 111 6.0 14.0 0.00 0.00 0.00 45 1021.6
20170327141241 63 97 5.0 10.0 0.00 0.00 0.00 44 1021.9
20170327140241 63 91 6.0 9.0 0.00 0.00 0.00 44 1022.0
20170327135240 63 90 7.0 12.0 0.00 0.00 0.00 43 1022.2
20170327134241 63 95 8.0 12.0 0.00 0.00 0.00 43 1022.2
20170327133241 63 95 5.0 13.0 0.00 0.00 0.00 45 1022.3
20170327132244 63 100 6.0 13.0 0.00 0.00 0.00 45 1022.4
20170327131238 63 135 8.0 12.0 0.00 0.00 0.00 43 1022.5
20170327130238 63 164 5.0 13.0 0.00 0.00 0.00 41 1022.6
20170327125238 62 119 6.0 13.0 0.00 0.00 0.00 46 1022.6
20170327124237 62 94 5.0 13.0 0.00 0.00 0.00 46 1022.7
20170327123237 62 107 4.0 9.0 0.00 0.00 0.00 50 1022.8
20170327122238 62 107 4.0 11.0 0.00 0.00 0.00 50 1023.0
20170327121238 62 104 5.0 11.0 0.00 0.00 0.00 52 1023.1
20170327120237 61 102 4.0 11.0 0.00 0.00 0.00 52 1023.3
20170327115237 61 131 4.0 9.0 0.00 0.00 0.00 53 1023.4
20170327114236 60 91 6.0 9.0 0.00 0.00 0.00 55 1023.5
20170327113236 61 126 4.0 9.0 0.00 0.00 0.00 56 1023.6
20170327112237 60 129 6.0 11.0 0.00 0.00 0.00 55 1023.8
20170327111236 60 111 4.0 11.0 0.00 0.00 0.00 57 1023.8
20170327110235 60 117 5.0 9.0 0.00 0.00 0.00 59 1023.9
20170327105236 59 115 6.0 11.0 0.00 0.00 0.00 59 1023.9
20170327104236 59 108 4.0 9.0 0.00 0.00 0.00 61 1023.9
20170327103235 58 56 4.0 11.0 0.00 0.00 0.00 62 1024.0
20170327102236 58 133 4.0 11.0 0.00 0.00 0.00 66 1024.0
20170327101235 57 94 2.0 9.0 0.00 0.00 0.00 68 1024.0
20170327100237 57 62 3.0 6.0 0.00 0.00 0.00 69 1024.0
20170327095237 55 132 3.0 7.0 0.00 0.00 0.00 71 1024.1
20170327094237 55 104 4.0 9.0 0.00 0.00 0.00 72 1024.1
20170327093236 54 125 5.0 9.0 0.00 0.00 0.00 73 1024.2
20170327092237 53 118 5.0 10.0 0.00 0.00 0.00 75 1024.2
20170327091236 53 115 5.0 10.0 0.00 0.00 0.00 77 1024.2
20170327090236 51 98 6.0 10.0 0.00 0.00 0.00 80 1024.3
20170327085235 50 100 5.0 11.0 0.00 0.00 0.00 84 1024.3
20170327084235 50 114 5.0 9.0 0.00 0.00 0.00 87 1024.3
20170327083235 49 97 7.0 11.0 0.00 0.00 0.00 90 1024.3
20170327082235 48 114 6.0 9.0 0.00 0.00 0.00 92 1024.1
20170327081231 47 84 5.0 9.0 0.00 0.00 0.00 93 1024.0
20170327080231 46 73 7.0 11.0 0.00 0.00 0.00 93 1024.2
20170327075232 45 119 4.0 9.0 0.00 0.00 0.00 94 1024.2
20170327074232 44 93 3.0 7.0 0.00 0.00 0.00 93 1024.2
20170327073233 44 88 4.0 6.0 0.00 0.00 0.00 93 1024.2
20170327072233 42 70 2.0 4.0 0.00 0.00 0.00 93 1024.3
20170327071233 41 43 2.0 5.0 0.00 0.00 0.00 93 1024.4
20170327070232 41 71 3.0 6.0 0.00 0.00 0.00 93 1024.4
20170327065233 40 91 3.0 6.0 0.00 0.00 0.00 93 1024.3
20170327064232 40 71 2.0 7.0 0.00 0.00 0.00 93 1024.3
20170327063233 40 62 3.0 6.0 0.00 0.00 0.00 93 1024.2
20170327062233 40 83 3.0 10.0 0.00 0.00 0.00 93 1024.1
20170327061231 39 74 4.0 7.0 0.00 0.00 0.00 93 1024.1
20170327060230 39 63 4.0 7.0 0.00 0.00 0.00 92 1024.0
20170327055227 39 56 4.0 5.0 0.00 0.00 0.00 92 1024.2
20170327054228 39 43 3.0 5.0 0.00 0.00 0.00 92 1024.2
20170327053229 39 67 3.0 6.0 0.00 0.00 0.00 92 1024.2
20170327052229 39 50 3.0 5.0 0.00 0.00 0.00 92 1024.1
20170327051230 39 59 3.0 4.0 0.00 0.00 0.00 92 1024.0
20170327050229 39 57 3.0 5.0 0.00 0.00 0.00 92 1024.0
20170327045229 39 26 2.0 4.0 0.00 0.00 0.00 92 1024.0
20170327044228 39 62 2.0 4.0 0.00 0.00 0.00 92 1023.9
20170327043228 39 81 2.0 4.0 0.00 0.00 0.00 92 1023.9
20170327042228 40 50 2.0 4.0 0.00 0.00 0.00 92 1023.8
20170327041228 40 46 3.0 5.0 0.00 0.00 0.00 92 1023.8
20170327040227 40 43 3.0 5.0 0.00 0.00 0.00 92 1023.8
20170327035226 40 64 3.0 5.0 0.00 0.00 0.00 92 1023.8
20170327034227 40 50 2.0 4.0 0.00 0.00 0.00 92 1023.8
20170327033227 40 71 3.0 5.0 0.00 0.00 0.00 92 1023.7
20170327032227 40 63 2.0 4.0 0.00 0.00 0.00 91 1023.8
20170327031227 40 43 3.0 4.0 0.00 0.00 0.00 91 1023.9
20170327030226 40 39 2.0 4.0 0.00 0.00 0.00 91 1023.9
20170327025236 40 49 2.0 4.0 0.00 0.00 0.00 91 1024.1
20170327024225 40 49 2.0 3.0 0.00 0.00 0.00 91 1024.0
20170327023225 40 46 2.0 3.0 0.00 0.00 0.00 91 1024.1